GFSCGP_prec_precacc_198.txt.gz
Total_Precipitation_Accumulation
0.00 0.00 0.00 0.00 0.00 0.01 0.17 0.41 1.20 1.86 2.16 3.33 3.08 2.32 1.37 1.20 0.91 1.24 0.85 0.19 0.07 0.10 0.06 0.02 0.07 0.10 0.03 0.02 0.03 0.10 0.24 0.30 0.37 0.23 0.18 0.33 0.20 0.19 0.19 0.34 0.34 0.43 0.62 0.53
0.00 0.00 0.00 0.00 0.00 0.02 0.03 0.37 0.92 1.22 1.44 2.31 3.67 2.77 1.70 1.29 0.82 0.84 1.14 0.47 0.22 0.19 0.16 0.03 0.02 0.03 0.03 0.01 0.01 0.15 0.29 0.28 0.23 0.09 0.07 0.27 0.39 0.26 0.49 0.48 0.48 0.46 0.31 0.36
0.00 0.00 0.00 0.00 0.00 0.00 0.06 0.27 0.62 0.89 0.63 1.24 2.92 3.97 3.21 1.99 1.40 1.29 0.69 0.50 0.23 0.15 0.18 0.19 0.10 0.03 0.03 0.01 0.00 0.01 0.12 0.21 0.22 0.11 0.11 0.40 0.83 0.89 0.78 0.63 0.33 0.18 0.18 0.18
0.00 0.00 0.00 0.00 0.00 0.00 0.11 0.20 0.62 1.36 0.79 0.77 0.58 2.51 3.88 2.38 1.97 1.67 0.73 0.43 0.23 0.17 0.29 0.36 0.20 0.06 0.01 0.02 0.03 0.01 0.09 0.20 0.16 0.26 0.16 0.31 0.33 0.46 0.35 0.27 0.20 0.18 0.20 0.21
0.00 0.00 0.00 0.00 0.00 0.01 0.03 0.17 0.56 0.67 0.62 0.26 0.16 0.73 1.74 2.07 1.77 1.58 0.86 0.33 0.20 0.22 0.18 0.13 0.10 0.09 0.12 0.08 0.33 0.24 0.13 0.26 0.23 0.33 0.52 0.37 0.17 0.23 0.36 0.29 0.34 0.44 0.46 0.39
0.00 0.00 0.00 0.00 0.00 0.01 0.02 0.08 0.32 0.59 0.46 0.34 0.09 0.26 0.98 1.41 0.91 1.19 0.85 0.36 0.18 0.21 0.15 0.16 0.26 0.17 0.21 0.47 0.80 0.29 0.16 0.16 0.27 0.31 0.39 0.52 0.53 0.65 0.48 0.56 0.38 0.21 0.16 0.20
0.00 0.00 0.00 0.00 0.00 0.00 0.01 0.05 0.34 0.41 0.31 0.39 0.16 0.25 0.46 0.72 0.54 0.59 1.09 0.55 0.41 0.27 0.25 0.18 0.24 0.12 0.09 0.17 0.46 0.20 0.16 0.14 0.10 0.08 0.17 0.26 0.55 0.81 0.89 0.74 0.30 0.28 0.25 0.15
0.00 0.00 0.00 0.00 0.00 0.00 0.00 0.01 0.13 0.29 0.34 0.45 0.33 0.67 0.32 0.21 0.25 0.41 0.56 0.69 1.16 0.80 0.46 0.32 0.36 0.24 0.08 0.06 0.12 0.09 0.24 0.11 0.04 0.04 0.12 0.29 0.50 0.43 0.32 0.30 0.38 0.21 0.18 0.20
0.00 0.00 0.00 0.00 0.00 0.00 0.00 0.01 0.04 0.09 0.17 0.36 0.36 0.62 0.30 0.14 0.12 0.11 0.41 0.78 1.02 0.93 0.58 0.38 0.51 0.49 0.16 0.06 0.08 0.23 0.56 0.28 0.11 0.02 0.10 0.21 0.22 0.17 0.33 0.46 0.58 0.31 0.22 0.34
0.00 0.00 0.00 0.00 0.00 0.01 0.00 0.01 0.03 0.04 0.20 0.22 0.50 0.98 0.96 0.27 0.50 0.24 0.23 0.36 0.41 0.76 0.94 0.72 0.67 0.65 0.58 0.32 0.24 0.29 0.42 0.43 0.19 0.09 0.10 0.06 0.05 0.06 0.32 0.50 0.55 0.43 0.64 1.02
0.01 0.00 0.01 0.00 0.02 0.03 0.01 0.00 0.01 0.01 0.08 0.28 0.51 0.87 0.90 0.45 0.70 0.58 0.44 0.27 0.24 0.25 0.73 1.41 1.95 2.33 1.85 1.55 1.26 0.75 0.79 0.74 0.53 0.22 0.23 0.19 0.11 0.07 0.21 0.34 0.39 0.57 0.76 0.85
0.02 0.01 0.01 0.01 0.03 0.09 0.12 0.07 0.06 0.02 0.16 0.21 0.29 0.69 0.75 0.45 0.55 0.65 1.39 0.81 0.65 0.35 0.35 0.95 1.52 2.83 4.33 2.80 2.83 3.20 1.66 1.25 0.91 0.45 0.42 0.22 0.18 0.18 0.20 0.13 0.24 0.49 0.67 0.82
0.09 0.06 0.02 0.05 0.07 0.03 0.00 0.02 0.17 0.14 0.14 0.07 0.12 0.22 0.32 0.40 0.66 0.84 1.48 1.44 0.75 0.81 0.58 0.54 0.84 1.23 2.40 2.20 1.92 3.82 3.96 2.82 2.16 1.30 0.88 0.74 0.77 0.38 0.22 0.19 0.24 0.36 0.47 0.64
0.19 0.06 0.01 0.03 0.09 0.08 0.02 0.02 0.01 0.06 0.09 0.03 0.04 0.13 0.37 0.39 0.50 0.28 0.38 1.12 0.90 0.65 0.89 0.70 1.06 1.81 2.41 2.84 2.90 3.54 3.05 3.04 3.75 2.65 2.25 1.77 1.58 1.14 0.91 0.74 0.63 0.54 0.59 0.49
0.11 0.02 0.00 0.00 0.00 0.00 0.03 0.03 0.03 0.01 0.01 0.06 0.36 0.14 0.66 0.36 0.17 0.09 0.20 0.31 0.51 0.77 0.90 0.95 1.08 1.25 2.45 3.51 3.00 3.87 3.97 3.28 2.70 3.07 4.06 4.05 3.37 2.70 2.53 2.74 2.46 1.59 1.27 0.87
0.11 0.04 0.00 0.00 0.00 0.00 0.01 0.01 0.01 0.05 0.13 0.07 0.26 0.50 0.31 0.43 0.35 0.33 0.40 0.70 0.93 0.97 0.88 1.00 1.43 1.49 1.59 1.92 2.06 2.91 4.35 4.91 3.49 2.57 2.46 3.29 4.14 4.55 3.77 3.53 3.26 3.62 2.67 1.81
0.17 0.16 0.15 0.05 0.01 0.01 0.06 0.01 0.01 0.01 0.04 0.05 0.13 0.64 0.61 0.62 0.65 0.73 0.53 0.89 1.55 1.47 1.29 1.06 1.09 1.48 1.37 1.31 1.19 1.23 1.84 2.99 3.75 3.97 3.20 2.96 3.26 4.53 4.61 3.43 3.49 3.76 3.45 3.18
0.14 0.22 0.23 0.15 0.13 0.18 0.07 0.06 0.04 0.07 0.08 0.20 0.35 0.30 0.47 0.49 0.20 0.19 0.19 0.25 0.69 1.00 1.45 1.42 1.22 1.27 1.19 1.49 1.69 1.27 1.21 1.34 1.89 2.72 3.43 3.66 3.09 3.80 4.36 3.50 2.78 2.64 3.06 3.43
0.07 0.22 0.25 0.17 0.32 0.25 0.11 0.08 0.04 0.06 0.16 0.21 0.23 0.35 0.82 0.67 0.43 0.22 0.22 0.21 0.29 0.67 0.61 0.97 1.45 1.38 1.69 1.60 1.84 2.05 1.90 1.38 1.58 1.73 2.21 3.30 4.30 4.29 4.35 4.62 3.87 3.28 2.92 2.49
0.14 0.27 0.37 0.25 0.62 0.79 0.60 0.21 0.03 0.03 0.27 0.39 0.29 0.35 0.97 0.63 0.71 0.45 0.25 0.21 0.24 0.53 0.38 0.32 0.43 0.78 1.15 1.89 2.05 2.26 2.60 2.07 1.55 1.55 1.70 1.71 1.99 2.77 3.31 3.92 4.10 3.82 4.11 3.81
0.53 0.52 0.44 0.38 0.70 0.71 0.43 0.20 0.04 0.22 0.31 0.22 0.23 0.50 0.69 0.53 0.54 0.64 0.62 0.67 0.16 0.21 0.41 0.22 0.17 0.29 0.55 0.81 1.20 1.68 1.56 1.70 2.25 2.27 2.19 1.96 1.94 2.08 2.16 2.39 2.49 2.86 2.70 2.54
0.79 0.95 0.69 0.56 0.76 0.93 0.50 0.44 0.34 0.27 0.10 0.16 0.25 0.49 0.78 0.66 0.70 0.56 0.43 0.36 0.36 0.18 0.53 0.43 0.24 0.33 0.41 0.59 0.83 1.06 1.24 1.23 1.88 2.48 2.99 3.28 3.31 3.14 2.55 2.33 2.78 2.78 2.44 2.38
0.63 0.59 0.63 0.73 0.91 0.89 0.55 0.44 0.16 0.07 0.12 0.18 0.30 0.42 0.63 0.63 0.52 0.48 0.39 0.21 0.16 0.15 0.62 0.68 0.29 0.35 0.56 0.64 0.61 0.61 0.78 1.00 1.06 1.39 1.95 2.13 2.66 2.89 2.65 2.78 2.96 2.72 2.40 2.03
0.84 0.67 0.77 0.72 0.62 0.69 0.65 0.47 0.39 0.17 0.17 0.17 0.23 0.37 0.58 0.55 0.47 0.38 0.35 0.34 0.32 0.27 0.47 1.53 1.31 0.61 0.60 0.56 0.53 0.55 0.61 0.66 0.62 0.70 0.78 0.74 0.77 1.01 1.01 0.98 1.07 1.22 1.23 1.17
1.70 1.39 1.06 0.92 0.98 1.08 1.05 0.73 0.60 0.58 0.48 0.35 0.34 0.31 0.31 0.34 0.41 0.48 0.41 0.37 0.40 0.56 0.59 1.00 1.48 1.11 0.57 0.48 0.52 0.61 0.62 0.88 0.79 0.94 0.88 0.94 1.02 1.09 1.24 1.44 1.19 0.87 0.77 0.87
2.34 2.11 1.91 1.65 1.50 1.67 1.25 1.00 0.67 0.89 0.83 0.78 0.63 0.66 0.61 0.51 0.44 0.41 0.44 0.43 0.42 0.51 0.91 1.16 1.10 1.09 0.99 0.89 0.94 0.85 0.84 0.87 0.92 1.05 1.12 1.18 1.17 1.26 1.19 1.09 1.17 1.46 1.71 1.71

GFSCGP_prec_precacc_201.txt.gz
Total_Precipitation_Accumulation
0.00 0.00 0.00 0.00 0.00 0.01 0.17 0.41 1.20 1.86 2.16 3.33 3.08 2.32 1.37 1.20 0.91 1.24 0.85 0.19 0.07 0.10 0.06 0.02 0.07 0.10 0.03 0.02 0.03 0.10 0.24 0.31 0.38 0.23 0.18 0.33 0.20 0.19 0.19 0.34 0.34 0.43 0.62 0.53
0.00 0.00 0.00 0.00 0.00 0.02 0.03 0.37 0.92 1.22 1.44 2.31 3.67 2.77 1.70 1.29 0.82 0.84 1.14 0.47 0.22 0.19 0.16 0.03 0.02 0.03 0.03 0.01 0.01 0.15 0.29 0.28 0.23 0.09 0.07 0.29 0.43 0.28 0.52 0.48 0.48 0.46 0.31 0.36
0.00 0.00 0.00 0.00 0.00 0.00 0.06 0.27 0.62 0.89 0.63 1.24 2.92 3.97 3.21 1.99 1.40 1.29 0.69 0.50 0.23 0.15 0.18 0.19 0.10 0.03 0.03 0.01 0.00 0.01 0.12 0.21 0.22 0.12 0.12 0.42 0.88 0.93 0.79 0.63 0.33 0.18 0.18 0.18
0.00 0.00 0.00 0.00 0.00 0.00 0.11 0.20 0.62 1.36 0.79 0.77 0.58 2.51 3.88 2.38 1.97 1.67 0.73 0.43 0.23 0.17 0.29 0.36 0.20 0.06 0.01 0.02 0.03 0.01 0.09 0.20 0.16 0.26 0.16 0.31 0.35 0.48 0.35 0.27 0.20 0.18 0.20 0.21
0.00 0.00 0.00 0.00 0.00 0.01 0.03 0.17 0.56 0.67 0.62 0.26 0.16 0.73 1.74 2.07 1.77 1.58 0.86 0.33 0.20 0.22 0.18 0.13 0.10 0.09 0.12 0.08 0.33 0.24 0.13 0.26 0.23 0.33 0.52 0.37 0.18 0.26 0.38 0.29 0.34 0.44 0.46 0.39
0.00 0.00 0.00 0.00 0.00 0.01 0.02 0.08 0.32 0.59 0.46 0.34 0.09 0.26 0.98 1.41 0.91 1.19 0.85 0.36 0.18 0.21 0.15 0.16 0.26 0.17 0.21 0.47 0.80 0.29 0.16 0.16 0.27 0.31 0.39 0.52 0.53 0.65 0.48 0.56 0.38 0.21 0.16 0.20
0.00 0.00 0.00 0.00 0.00 0.00 0.01 0.05 0.34 0.41 0.31 0.39 0.16 0.25 0.46 0.72 0.54 0.59 1.09 0.55 0.41 0.27 0.25 0.18 0.24 0.12 0.09 0.17 0.46 0.20 0.16 0.14 0.10 0.08 0.17 0.26 0.55 0.81 0.89 0.74 0.30 0.28 0.25 0.15
0.00 0.00 0.00 0.00 0.00 0.00 0.00 0.01 0.13 0.29 0.34 0.45 0.33 0.67 0.32 0.21 0.25 0.41 0.56 0.69 1.16 0.80 0.46 0.32 0.36 0.24 0.08 0.06 0.12 0.09 0.24 0.11 0.04 0.04 0.12 0.29 0.50 0.43 0.32 0.30 0.38 0.21 0.18 0.20
0.00 0.00 0.00 0.00 0.00 0.00 0.00 0.01 0.04 0.09 0.17 0.36 0.36 0.62 0.30 0.14 0.12 0.11 0.41 0.78 1.02 0.93 0.58 0.38 0.51 0.49 0.16 0.06 0.08 0.23 0.56 0.28 0.11 0.02 0.10 0.21 0.22 0.17 0.33 0.46 0.58 0.31 0.22 0.34
0.00 0.00 0.00 0.00 0.00 0.01 0.00 0.01 0.03 0.04 0.20 0.22 0.50 0.98 0.96 0.27 0.50 0.24 0.23 0.36 0.41 0.76 0.94 0.72 0.67 0.65 0.58 0.33 0.24 0.29 0.42 0.43 0.19 0.09 0.10 0.06 0.05 0.06 0.32 0.50 0.55 0.43 0.64 1.02
0.01 0.00 0.01 0.00 0.02 0.03 0.01 0.00 0.01 0.01 0.08 0.28 0.51 0.87 0.90 0.45 0.70 0.58 0.44 0.27 0.24 0.25 0.73 1.41 1.95 2.33 1.85 1.55 1.26 0.75 0.80 0.74 0.53 0.22 0.23 0.19 0.11 0.07 0.21 0.34 0.39 0.57 0.76 0.85
0.02 0.01 0.01 0.01 0.03 0.09 0.12 0.07 0.06 0.02 0.16 0.21 0.29 0.69 0.75 0.45 0.55 0.65 1.39 0.81 0.65 0.35 0.35 0.95 1.52 2.83 4.33 2.80 2.83 3.20 1.67 1.28 0.92 0.47 0.43 0.23 0.18 0.18 0.20 0.13 0.24 0.49 0.67 0.82
0.09 0.06 0.02 0.05 0.07 0.03 0.00 0.02 0.17 0.14 0.14 0.07 0.12 0.22 0.32 0.40 0.66 0.84 1.48 1.44 0.75 0.81 0.58 0.54 0.84 1.23 2.40 2.20 1.92 3.82 3.96 2.82 2.16 1.30 0.89 0.74 0.77 0.38 0.22 0.19 0.24 0.36 0.47 0.64
0.19 0.06 0.01 0.03 0.09 0.08 0.02 0.02 0.01 0.06 0.09 0.03 0.04 0.13 0.37 0.39 0.50 0.28 0.38 1.12 0.90 0.65 0.89 0.70 1.06 1.81 2.41 2.84 2.90 3.54 3.05 3.05 3.75 2.65 2.25 1.77 1.58 1.14 0.91 0.74 0.63 0.54 0.59 0.49
0.11 0.02 0.00 0.00 0.00 0.00 0.03 0.03 0.03 0.01 0.01 0.06 0.36 0.14 0.66 0.36 0.17 0.09 0.20 0.31 0.51 0.77 0.90 0.95 1.08 1.25 2.45 3.51 3.00 3.87 3.97 3.28 2.73 3.08 4.06 4.06 3.37 2.70 2.53 2.74 2.46 1.59 1.27 0.87
0.11 0.04 0.00 0.00 0.00 0.00 0.01 0.01 0.01 0.05 0.13 0.07 0.26 0.50 0.31 0.43 0.35 0.33 0.40 0.70 0.93 0.97 0.88 1.00 1.43 1.49 1.59 1.92 2.06 2.91 4.35 4.91 3.49 2.57 2.46 3.29 4.14 4.55 3.77 3.53 3.26 3.62 2.67 1.81
0.17 0.16 0.15 0.05 0.01 0.01 0.06 0.01 0.01 0.01 0.04 0.05 0.13 0.64 0.61 0.62 0.65 0.73 0.53 0.89 1.55 1.47 1.29 1.06 1.09 1.48 1.37 1.31 1.19 1.23 1.84 2.99 3.75 3.97 3.21 2.97 3.26 4.53 4.62 3.43 3.49 3.76 3.45 3.18
0.14 0.22 0.23 0.15 0.13 0.18 0.07 0.06 0.04 0.07 0.08 0.20 0.35 0.30 0.47 0.49 0.20 0.19 0.19 0.25 0.69 1.00 1.45 1.42 1.22 1.27 1.19 1.49 1.69 1.27 1.21 1.34 1.89 2.72 3.44 3.69 3.22 3.92 4.49 3.52 2.78 2.64 3.06 3.43
0.07 0.22 0.25 0.17 0.32 0.25 0.11 0.08 0.04 0.06 0.16 0.21 0.23 0.35 0.82 0.67 0.43 0.24 0.24 0.22 0.29 0.67 0.61 0.97 1.45 1.38 1.69 1.60 1.84 2.05 1.90 1.38 1.58 1.73 2.21 3.30 4.43 4.37 4.37 4.62 3.87 3.28 2.92 2.49
0.14 0.27 0.37 0.25 0.62 0.79 0.60 0.21 0.03 0.03 0.27 0.39 0.29 0.35 0.97 0.63 0.71 0.46 0.25 0.22 0.24 0.53 0.38 0.32 0.43 0.78 1.15 1.89 2.05 2.26 2.60 2.07 1.55 1.55 1.70 1.71 2.00 2.78 3.31 3.96 4.11 3.82 4.11 3.81
0.53 0.52 0.44 0.38 0.70 0.71 0.43 0.20 0.04 0.22 0.31 0.22 0.23 0.50 0.69 0.53 0.54 0.64 0.62 0.67 0.16 0.21 0.41 0.22 0.18 0.29 0.55 0.82 1.22 1.70 1.56 1.70 2.25 2.27 2.19 1.96 1.94 2.08 2.16 2.42 2.64 2.88 2.70 2.54
0.79 0.95 0.69 0.56 0.76 0.93 0.50 0.44 0.34 0.27 0.10 0.16 0.25 0.49 0.78 0.66 0.70 0.56 0.43 0.36 0.36 0.18 0.53 0.44 0.26 0.34 0.41 0.60 0.85 1.09 1.29 1.30 1.90 2.48 2.99 3.28 3.31 3.14 2.55 2.35 2.87 2.90 2.52 2.46
0.63 0.59 0.63 0.73 0.91 0.89 0.55 0.44 0.16 0.07 0.12 0.18 0.30 0.42 0.63 0.63 0.52 0.48 0.39 0.21 0.16 0.15 0.62 0.68 0.29 0.35 0.57 0.65 0.63 0.63 0.81 1.10 1.28 1.45 1.95 2.13 2.66 2.89 2.65 2.81 2.96 2.74 2.45 2.07
0.84 0.67 0.77 0.72 0.62 0.69 0.65 0.47 0.39 0.17 0.17 0.17 0.23 0.37 0.58 0.55 0.47 0.38 0.35 0.34 0.32 0.27 0.47 1.53 1.31 0.61 0.60 0.56 0.53 0.57 0.63 0.70 0.70 0.79 0.84 0.75 0.77 1.01 1.01 0.98 1.08 1.29 1.31 1.21
1.70 1.39 1.06 0.92 0.98 1.08 1.05 0.73 0.60 0.58 0.48 0.35 0.34 0.31 0.31 0.34 0.41 0.48 0.41 0.37 0.40 0.56 0.59 1.00 1.48 1.11 0.57 0.48 0.52 0.61 0.63 0.89 0.79 0.96 0.95 1.03 1.20 1.32 1.50 1.80 1.76 1.24 0.99 1.00
2.34 2.11 1.91 1.65 1.50 1.67 1.25 1.00 0.67 0.89 0.83 0.78 0.63 0.66 0.61 0.51 0.44 0.41 0.44 0.43 0.42 0.51 0.91 1.16 1.10 1.09 0.99 0.89 0.94 0.85 0.85 0.89 0.92 1.05 1.13 1.25 1.44 1.56 1.49 1.44 1.43 1.62 1.80 1.77

GFSCGP_prec_precacc_207.txt.gz
Total_Precipitation_Accumulation
0.00 0.00 0.00 0.00 0.00 0.01 0.17 0.41 1.20 1.86 2.16 3.33 3.08 2.32 1.37 1.20 0.91 1.24 0.85 0.19 0.07 0.10 0.06 0.02 0.07 0.10 0.03 0.02 0.03 0.10 0.27 0.37 0.51 0.35 0.24 0.33 0.20 0.19 0.20 0.34 0.34 0.43 0.62 0.60
0.00 0.00 0.00 0.00 0.00 0.02 0.03 0.37 0.92 1.22 1.44 2.31 3.67 2.77 1.70 1.29 0.82 0.84 1.14 0.47 0.22 0.19 0.16 0.03 0.02 0.03 0.03 0.01 0.01 0.15 0.29 0.34 0.26 0.11 0.07 0.29 0.43 0.28 0.52 0.48 0.48 0.46 0.31 0.39
0.00 0.00 0.00 0.00 0.00 0.00 0.06 0.27 0.62 0.89 0.63 1.24 2.92 3.97 3.21 1.99 1.40 1.29 0.69 0.50 0.23 0.15 0.18 0.19 0.10 0.03 0.03 0.01 0.00 0.01 0.12 0.22 0.24 0.12 0.16 0.53 0.96 0.95 0.82 0.63 0.33 0.18 0.18 0.18
0.00 0.00 0.00 0.00 0.00 0.00 0.11 0.20 0.62 1.36 0.79 0.77 0.58 2.51 3.88 2.38 1.97 1.67 0.73 0.43 0.23 0.17 0.29 0.36 0.20 0.06 0.01 0.02 0.03 0.01 0.09 0.20 0.16 0.26 0.19 0.36 0.47 0.53 0.36 0.27 0.20 0.18 0.20 0.21
0.00 0.00 0.00 0.00 0.00 0.01 0.03 0.17 0.56 0.67 0.62 0.26 0.16 0.73 1.74 2.07 1.77 1.58 0.86 0.33 0.20 0.22 0.18 0.13 0.10 0.09 0.12 0.08 0.33 0.24 0.13 0.26 0.23 0.33 0.54 0.40 0.41 0.49 0.58 0.33 0.35 0.47 0.46 0.39
0.00 0.00 0.00 0.00 0.00 0.01 0.02 0.08 0.32 0.59 0.46 0.34 0.09 0.26 0.98 1.41 0.91 1.19 0.85 0.36 0.18 0.21 0.15 0.16 0.26 0.17 0.21 0.47 0.80 0.29 0.16 0.16 0.27 0.31 0.39 0.53 0.65 0.85 0.55 0.66 0.44 0.25 0.16 0.20
0.00 0.00 0.00 0.00 0.00 0.00 0.01 0.05 0.34 0.41 0.31 0.39 0.16 0.25 0.46 0.72 0.54 0.59 1.09 0.55 0.41 0.27 0.25 0.18 0.24 0.12 0.09 0.17 0.46 0.20 0.16 0.14 0.10 0.08 0.17 0.26 0.60 0.95 1.00 0.83 0.33 0.30 0.25 0.15
0.00 0.00 0.00 0.00 0.00 0.00 0.00 0.01 0.13 0.29 0.34 0.45 0.33 0.67 0.32 0.21 0.25 0.41 0.56 0.69 1.16 0.80 0.46 0.32 0.36 0.24 0.08 0.06 0.12 0.09 0.24 0.11 0.04 0.04 0.12 0.29 0.51 0.47 0.34 0.31 0.40 0.21 0.18 0.20
0.00 0.00 0.00 0.00 0.00 0.00 0.00 0.01 0.04 0.09 0.17 0.36 0.36 0.62 0.30 0.14 0.12 0.11 0.41 0.78 1.02 0.93 0.58 0.38 0.51 0.49 0.16 0.06 0.08 0.23 0.56 0.28 0.11 0.02 0.10 0.21 0.22 0.17 0.33 0.46 0.59 0.31 0.22 0.34
0.00 0.00 0.00 0.00 0.00 0.01 0.00 0.01 0.03 0.04 0.20 0.22 0.50 0.98 0.96 0.27 0.50 0.24 0.23 0.36 0.41 0.76 0.94 0.72 0.67 0.65 0.58 0.33 0.24 0.29 0.42 0.43 0.19 0.09 0.10 0.06 0.05 0.06 0.32 0.50 0.56 0.43 0.64 1.02
0.01 0.00 0.01 0.00 0.02 0.03 0.01 0.00 0.01 0.01 0.08 0.28 0.51 0.87 0.90 0.45 0.70 0.58 0.44 0.27 0.24 0.25 0.73 1.41 1.95 2.33 1.85 1.55 1.26 0.75 0.80 0.74 0.53 0.22 0.23 0.19 0.11 0.07 0.21 0.34 0.39 0.57 0.76 0.85
0.02 0.01 0.01 0.01 0.03 0.09 0.12 0.07 0.06 0.02 0.16 0.21 0.29 0.69 0.75 0.45 0.55 0.65 1.39 0.81 0.65 0.35 0.35 0.95 1.52 2.83 4.33 2.80 2.83 3.20 1.67 1.28 0.92 0.47 0.43 0.23 0.18 0.18 0.20 0.13 0.24 0.49 0.67 0.82
0.09 0.06 0.02 0.05 0.07 0.03 0.00 0.02 0.17 0.14 0.14 0.07 0.12 0.22 0.32 0.40 0.66 0.84 1.48 1.44 0.75 0.81 0.58 0.54 0.84 1.23 2.40 2.20 1.92 3.82 3.96 2.82 2.16 1.30 0.89 0.74 0.77 0.38 0.22 0.19 0.24 0.36 0.47 0.64
0.19 0.06 0.01 0.03 0.09 0.08 0.02 0.02 0.01 0.06 0.09 0.03 0.04 0.13 0.37 0.39 0.50 0.28 0.38 1.12 0.90 0.65 0.89 0.70 1.06 1.81 2.41 2.84 2.90 3.54 3.05 3.05 3.75 2.65 2.25 1.77 1.58 1.14 0.91 0.74 0.63 0.54 0.59 0.49
0.11 0.02 0.00 0.00 0.00 0.00 0.03 0.03 0.03 0.01 0.01 0.06 0.36 0.14 0.66 0.36 0.17 0.09 0.20 0.31 0.51 0.77 0.90 0.95 1.08 1.25 2.45 3.51 3.00 3.87 3.97 3.28 2.73 3.08 4.06 4.06 3.37 2.70 2.53 2.74 2.46 1.59 1.27 0.87
0.11 0.04 0.00 0.00 0.00 0.00 0.01 0.01 0.01 0.05 0.13 0.07 0.26 0.50 0.31 0.43 0.35 0.33 0.40 0.70 0.93 0.97 0.88 1.00 1.43 1.49 1.59 1.92 2.06 2.91 4.35 4.91 3.49 2.57 2.46 3.29 4.14 4.55 3.77 3.53 3.26 3.62 2.67 1.81
0.17 0.16 0.15 0.05 0.01 0.01 0.06 0.01 0.01 0.01 0.04 0.05 0.13 0.64 0.61 0.62 0.65 0.73 0.53 0.89 1.55 1.47 1.29 1.06 1.09 1.48 1.37 1.31 1.19 1.23 1.84 2.99 3.75 3.98 3.21 2.97 3.26 4.53 4.62 3.43 3.49 3.76 3.45 3.18
0.14 0.22 0.23 0.15 0.13 0.18 0.07 0.06 0.04 0.07 0.08 0.20 0.35 0.30 0.47 0.49 0.20 0.19 0.19 0.25 0.69 1.00 1.45 1.42 1.22 1.27 1.19 1.49 1.69 1.27 1.21 1.34 1.92 2.78 3.47 3.71 3.22 3.92 4.49 3.52 2.78 2.64 3.06 3.43
0.07 0.22 0.25 0.17 0.32 0.25 0.11 0.08 0.04 0.06 0.16 0.21 0.23 0.35 0.82 0.67 0.43 0.26 0.28 0.23 0.29 0.67 0.61 0.97 1.45 1.38 1.69 1.60 1.84 2.05 1.93 1.46 1.74 1.92 2.43 3.40 4.44 4.38 4.38 4.63 3.88 3.28 2.93 2.49
0.14 0.27 0.37 0.25 0.62 0.79 0.60 0.21 0.03 0.03 0.27 0.39 0.29 0.35 0.97 0.63 0.71 0.49 0.28 0.23 0.24 0.53 0.38 0.32 0.43 0.78 1.15 1.89 2.05 2.26 2.60 2.09 1.71 1.83 1.96 1.87 2.03 2.78 3.33 3.97 4.12 3.83 4.12 3.82
0.53 0.52 0.44 0.38 0.70 0.71 0.43 0.20 0.04 0.22 0.31 0.22 0.23 0.50 0.69 0.53 0.54 0.64 0.62 0.67 0.16 0.21 0.41 0.22 0.18 0.29 0.55 0.82 1.22 1.70 1.56 1.70 2.27 2.33 2.31 2.04 1.96 2.09 2.16 2.43 2.64 2.89 2.71 2.56
0.79 0.95 0.69 0.56 0.76 0.93 0.50 0.44 0.34 0.27 0.10 0.16 0.25 0.49 0.78 0.66 0.70 0.56 0.43 0.36 0.36 0.18 0.53 0.44 0.26 0.34 0.41 0.60 0.85 1.09 1.29 1.30 1.93 2.51 3.02 3.33 3.42 3.19 2.58 2.37 2.88 2.91 2.70 2.70
0.63 0.59 0.63 0.73 0.91 0.89 0.55 0.44 0.16 0.07 0.12 0.18 0.30 0.42 0.63 0.63 0.52 0.48 0.39 0.21 0.16 0.15 0.62 0.68 0.29 0.35 0.57 0.65 0.63 0.63 0.81 1.10 1.30 1.57 2.02 2.19 2.84 3.15 2.89 3.02 3.08 2.74 2.48 2.43
0.84 0.67 0.77 0.72 0.62 0.69 0.65 0.47 0.39 0.17 0.17 0.17 0.23 0.37 0.58 0.55 0.47 0.38 0.35 0.34 0.32 0.27 0.47 1.53 1.31 0.61 0.60 0.56 0.53 0.57 0.63 0.71 0.71 0.79 0.87 0.78 1.04 1.43 1.34 1.33 1.28 1.35 1.35 1.32
1.70 1.39 1.06 0.92 0.98 1.08 1.05 0.73 0.60 0.58 0.48 0.35 0.34 0.31 0.31 0.34 0.41 0.48 0.41 0.37 0.40 0.56 0.59 1.00 1.48 1.11 0.57 0.48 0.52 0.61 0.63 0.89 0.79 0.96 0.95 1.04 1.43 1.91 2.19 2.29 2.38 1.86 1.63 1.47
2.34 2.11 1.91 1.65 1.50 1.67 1.25 1.00 0.67 0.89 0.83 0.78 0.63 0.67 0.61 0.52 0.45 0.43 0.46 0.44 0.42 0.52 0.92 1.18 1.12 1.10 0.99 0.89 0.94 0.85 0.85 0.89 0.92 1.05 1.13 1.26 1.52 1.93 2.22 2.03 2.15 2.51 2.68 2.38

GFSCGP_prec_precacc_210.txt.gz
Total_Precipitation_Accumulation
0.00 0.00 0.00 0.00 0.00 0.01 0.17 0.41 1.20 1.86 2.16 3.33 3.08 2.32 1.37 1.20 0.91 1.24 0.85 0.19 0.07 0.10 0.06 0.02 0.07 0.10 0.03 0.02 0.03 0.10 0.27 0.40 0.57 0.58 0.36 0.42 0.21 0.24 0.24 0.34 0.34 0.44 0.62 0.61
0.00 0.00 0.00 0.00 0.00 0.02 0.03 0.37 0.92 1.22 1.44 2.31 3.67 2.77 1.70 1.29 0.82 0.84 1.14 0.47 0.22 0.19 0.16 0.03 0.02 0.03 0.03 0.01 0.01 0.15 0.29 0.37 0.31 0.17 0.08 0.34 0.43 0.29 0.52 0.48 0.48 0.46 0.31 0.41
0.00 0.00 0.00 0.00 0.00 0.00 0.06 0.27 0.62 0.89 0.63 1.24 2.92 3.97 3.21 1.99 1.40 1.29 0.69 0.50 0.23 0.15 0.18 0.19 0.10 0.03 0.03 0.01 0.00 0.01 0.12 0.22 0.28 0.20 0.18 0.63 1.00 0.98 0.87 0.65 0.33 0.18 0.18 0.18
0.00 0.00 0.00 0.00 0.00 0.00 0.11 0.20 0.62 1.36 0.79 0.77 0.58 2.51 3.88 2.38 1.97 1.67 0.73 0.43 0.23 0.17 0.29 0.36 0.20 0.06 0.01 0.02 0.03 0.01 0.09 0.20 0.18 0.31 0.21 0.38 0.58 0.61 0.37 0.27 0.20 0.18 0.20 0.21
0.00 0.00 0.00 0.00 0.00 0.01 0.03 0.17 0.56 0.67 0.62 0.26 0.16 0.73 1.74 2.07 1.77 1.58 0.86 0.33 0.20 0.22 0.18 0.13 0.10 0.09 0.12 0.08 0.33 0.24 0.13 0.26 0.23 0.33 0.61 0.46 0.47 0.55 0.64 0.33 0.36 0.49 0.47 0.39
0.00 0.00 0.00 0.00 0.00 0.01 0.02 0.08 0.32 0.59 0.46 0.34 0.09 0.26 0.98 1.41 0.91 1.19 0.85 0.36 0.18 0.21 0.15 0.16 0.26 0.17 0.21 0.47 0.80 0.29 0.16 0.16 0.27 0.31 0.41 0.55 0.67 0.93 0.59 0.76 0.53 0.27 0.16 0.20
0.00 0.00 0.00 0.00 0.00 0.00 0.01 0.05 0.34 0.41 0.31 0.39 0.16 0.25 0.46 0.72 0.54 0.59 1.09 0.55 0.41 0.27 0.25 0.18 0.24 0.12 0.09 0.17 0.46 0.20 0.16 0.14 0.10 0.08 0.17 0.26 0.62 0.99 1.07 0.96 0.42 0.39 0.27 0.16
0.00 0.00 0.00 0.00 0.00 0.00 0.00 0.01 0.13 0.29 0.34 0.45 0.33 0.67 0.32 0.21 0.25 0.41 0.56 0.69 1.16 0.80 0.46 0.32 0.36 0.24 0.08 0.06 0.12 0.09 0.24 0.11 0.04 0.04 0.12 0.29 0.53 0.50 0.37 0.31 0.46 0.26 0.19 0.20
0.00 0.00 0.00 0.00 0.00 0.00 0.00 0.01 0.04 0.09 0.17 0.36 0.36 0.62 0.30 0.14 0.12 0.11 0.41 0.78 1.02 0.93 0.58 0.38 0.51 0.49 0.16 0.06 0.08 0.23 0.56 0.28 0.11 0.02 0.10 0.21 0.22 0.17 0.33 0.46 0.62 0.34 0.26 0.35
0.00 0.00 0.00 0.00 0.00 0.01 0.00 0.01 0.03 0.04 0.20 0.22 0.50 0.98 0.96 0.27 0.50 0.24 0.23 0.36 0.41 0.76 0.94 0.72 0.67 0.65 0.58 0.33 0.24 0.29 0.42 0.43 0.19 0.09 0.10 0.06 0.05 0.06 0.33 0.51 0.56 0.43 0.64 1.02
0.01 0.00 0.01 0.00 0.02 0.03 0.01 0.00 0.01 0.01 0.08 0.28 0.51 0.87 0.90 0.45 0.70 0.58 0.44 0.27 0.24 0.25 0.73 1.41 1.95 2.33 1.85 1.55 1.26 0.75 0.80 0.74 0.53 0.22 0.23 0.19 0.11 0.07 0.21 0.34 0.39 0.57 0.76 0.86
0.02 0.01 0.01 0.01 0.03 0.09 0.12 0.07 0.06 0.02 0.16 0.21 0.29 0.70 0.75 0.46 0.55 0.65 1.39 0.81 0.65 0.35 0.35 0.95 1.52 2.83 4.33 2.80 2.83 3.20 1.67 1.28 0.92 0.47 0.43 0.23 0.18 0.18 0.20 0.13 0.24 0.49 0.67 0.83
0.09 0.06 0.02 0.05 0.07 0.03 0.00 0.02 0.17 0.14 0.14 0.07 0.12 0.23 0.33 0.40 0.66 0.84 1.48 1.44 0.75 0.81 0.58 0.54 0.84 1.23 2.40 2.20 1.92 3.82 3.96 2.82 2.16 1.30 0.89 0.74 0.77 0.38 0.22 0.19 0.24 0.36 0.47 0.64
0.19 0.06 0.01 0.03 0.09 0.08 0.02 0.02 0.01 0.06 0.09 0.03 0.04 0.13 0.37 0.39 0.50 0.28 0.39 1.15 0.90 0.65 0.89 0.70 1.06 1.81 2.41 2.84 2.90 3.54 3.05 3.05 3.75 2.65 2.25 1.77 1.58 1.14 0.91 0.74 0.63 0.54 0.59 0.49
0.11 0.02 0.00 0.00 0.00 0.00 0.03 0.03 0.03 0.01 0.01 0.06 0.36 0.14 0.66 0.36 0.17 0.09 0.20 0.34 0.51 0.77 0.90 0.95 1.08 1.25 2.45 3.51 3.00 3.87 3.97 3.28 2.73 3.08 4.06 4.06 3.37 2.70 2.53 2.74 2.46 1.59 1.27 0.87
0.11 0.04 0.00 0.00 0.00 0.00 0.01 0.01 0.01 0.05 0.13 0.07 0.26 0.50 0.31 0.43 0.35 0.33 0.40 0.70 0.93 0.97 0.88 1.00 1.43 1.49 1.59 1.92 2.06 2.91 4.35 4.91 3.49 2.57 2.47 3.31 4.24 4.62 3.82 3.55 3.29 3.62 2.67 1.81
0.17 0.16 0.15 0.05 0.01 0.01 0.06 0.01 0.01 0.01 0.04 0.05 0.13 0.64 0.61 0.62 0.65 0.73 0.53 0.89 1.55 1.47 1.29 1.06 1.09 1.48 1.37 1.31 1.19 1.23 1.84 2.99 3.75 3.98 3.22 3.07 3.42 4.66 4.73 3.54 3.55 3.79 3.45 3.18
0.14 0.22 0.23 0.15 0.13 0.18 0.07 0.06 0.04 0.07 0.08 0.20 0.35 0.30 0.47 0.49 0.20 0.19 0.19 0.25 0.69 1.00 1.45 1.42 1.22 1.27 1.19 1.49 1.69 1.27 1.21 1.34 1.92 2.78 3.51 3.84 3.41 4.09 4.67 3.67 2.87 2.71 3.08 3.43
0.07 0.22 0.25 0.17 0.32 0.25 0.11 0.08 0.04 0.06 0.16 0.21 0.23 0.35 0.82 0.67 0.43 0.26 0.30 0.24 0.29 0.67 0.61 0.97 1.45 1.38 1.69 1.60 1.84 2.05 1.93 1.47 1.74 1.93 2.50 3.58 4.75 4.74 4.74 4.92 4.12 3.45 3.00 2.50
0.14 0.27 0.37 0.25 0.62 0.79 0.60 0.21 0.03 0.03 0.27 0.39 0.29 0.35 0.97 0.63 0.71 0.49 0.29 0.23 0.24 0.53 0.38 0.32 0.43 0.78 1.15 1.89 2.05 2.26 2.60 2.09 1.71 1.84 1.99 2.08 2.46 3.13 3.60 4.28 4.51 4.18 4.30 3.89
0.53 0.52 0.44 0.38 0.70 0.71 0.43 0.20 0.04 0.22 0.31 0.22 0.23 0.50 0.69 0.53 0.54 0.64 0.62 0.67 0.16 0.21 0.41 0.22 0.18 0.29 0.55 0.82 1.22 1.70 1.56 1.70 2.27 2.34 2.34 2.25 2.29 2.60 2.92 3.03 3.12 3.27 3.01 2.77
0.79 0.95 0.69 0.56 0.76 0.93 0.50 0.44 0.34 0.27 0.10 0.16 0.25 0.49 0.78 0.66 0.70 0.56 0.43 0.36 0.36 0.18 0.53 0.44 0.26 0.34 0.41 0.60 0.85 1.09 1.29 1.30 1.93 2.51 3.02 3.38 3.58 3.51 3.12 3.08 3.73 3.35 2.96 2.91
0.63 0.59 0.63 0.73 0.91 0.89 0.55 0.44 0.16 0.07 0.12 0.18 0.30 0.42 0.63 0.63 0.52 0.48 0.39 0.21 0.16 0.15 0.62 0.68 0.29 0.35 0.57 0.65 0.63 0.63 0.81 1.10 1.30 1.57 2.02 2.19 2.85 3.22 3.09 3.27 3.29 2.89 2.56 2.50
0.84 0.67 0.77 0.72 0.62 0.69 0.65 0.47 0.39 0.17 0.17 0.17 0.23 0.37 0.58 0.55 0.47 0.38 0.35 0.34 0.32 0.27 0.47 1.53 1.31 0.61 0.60 0.56 0.53 0.57 0.63 0.71 0.71 0.79 0.87 0.78 1.04 1.43 1.37 1.40 1.39 1.55 1.46 1.40
1.70 1.39 1.06 0.92 0.98 1.08 1.05 0.73 0.60 0.58 0.48 0.35 0.34 0.31 0.31 0.34 0.41 0.48 0.41 0.37 0.40 0.56 0.59 1.01 1.49 1.11 0.57 0.48 0.52 0.61 0.63 0.89 0.79 0.96 0.95 1.04 1.43 1.91 2.20 2.40 2.65 2.32 2.21 2.11
2.34 2.11 1.91 1.65 1.50 1.67 1.25 1.00 0.67 0.89 0.83 0.78 0.63 0.67 0.61 0.52 0.45 0.43 0.46 0.44 0.43 0.52 0.93 1.19 1.14 1.12 1.00 0.89 0.94 0.85 0.85 0.89 0.92 1.05 1.13 1.26 1.52 1.93 2.24 2.08 2.34 2.92 3.24 3.16

GFSCGP_prec_precacc_216.txt.gz
Total_Precipitation_Accumulation
0.00 0.00 0.00 0.00 0.00 0.01 0.17 0.41 1.20 1.86 2.16 3.33 3.08 2.32 1.37 1.20 0.91 1.24 0.85 0.19 0.07 0.11 0.06 0.02 0.07 0.10 0.03 0.02 0.03 0.10 0.27 0.40 0.57 0.58 0.40 0.47 0.23 0.26 0.28 0.37 0.41 0.50 0.63 0.63
0.00 0.00 0.00 0.00 0.00 0.02 0.03 0.37 0.92 1.22 1.44 2.31 3.67 2.77 1.70 1.29 0.82 0.84 1.14 0.47 0.22 0.19 0.16 0.03 0.02 0.03 0.03 0.01 0.01 0.15 0.29 0.37 0.31 0.17 0.09 0.35 0.45 0.30 0.52 0.48 0.53 0.53 0.34 0.43
0.00 0.00 0.00 0.00 0.00 0.00 0.06 0.27 0.62 0.89 0.63 1.24 2.92 3.97 3.21 1.99 1.40 1.29 0.69 0.50 0.23 0.15 0.18 0.19 0.10 0.03 0.03 0.01 0.00 0.01 0.12 0.22 0.28 0.21 0.19 0.66 1.07 1.00 0.89 0.69 0.36 0.27 0.25 0.19
0.00 0.00 0.00 0.00 0.00 0.00 0.11 0.20 0.62 1.36 0.79 0.77 0.58 2.51 3.88 2.38 1.97 1.67 0.73 0.43 0.23 0.17 0.29 0.36 0.20 0.06 0.01 0.02 0.03 0.01 0.09 0.20 0.18 0.31 0.21 0.38 0.58 0.61 0.43 0.28 0.21 0.31 0.26 0.22
0.00 0.00 0.00 0.00 0.00 0.01 0.03 0.17 0.56 0.67 0.62 0.26 0.16 0.73 1.74 2.07 1.77 1.58 0.86 0.33 0.20 0.22 0.18 0.13 0.10 0.09 0.12 0.08 0.33 0.24 0.13 0.26 0.23 0.33 0.61 0.47 0.47 0.55 0.65 0.34 0.36 0.52 0.48 0.40
0.00 0.00 0.00 0.00 0.00 0.01 0.02 0.08 0.32 0.59 0.46 0.34 0.09 0.26 0.98 1.41 0.91 1.19 0.85 0.36 0.18 0.21 0.15 0.16 0.26 0.17 0.21 0.47 0.80 0.29 0.16 0.16 0.27 0.31 0.41 0.55 0.67 0.93 0.59 0.78 0.58 0.28 0.17 0.21
0.00 0.00 0.00 0.00 0.00 0.00 0.01 0.05 0.34 0.41 0.35 0.40 0.16 0.25 0.46 0.72 0.54 0.59 1.09 0.55 0.41 0.27 0.25 0.18 0.24 0.12 0.09 0.17 0.46 0.20 0.16 0.14 0.10 0.08 0.17 0.26 0.62 0.99 1.07 0.96 0.43 0.40 0.28 0.16
0.00 0.00 0.00 0.00 0.00 0.00 0.00 0.01 0.13 0.29 0.34 0.45 0.33 0.67 0.32 0.21 0.25 0.41 0.56 0.69 1.16 0.80 0.48 0.37 0.40 0.24 0.09 0.06 0.12 0.09 0.24 0.11 0.04 0.04 0.12 0.29 0.53 0.50 0.37 0.31 0.46 0.26 0.20 0.21
0.00 0.00 0.00 0.00 0.00 0.00 0.00 0.01 0.04 0.09 0.17 0.36 0.36 0.63 0.30 0.14 0.12 0.11 0.41 0.78 1.06 0.99 0.73 0.79 0.61 0.51 0.19 0.07 0.08 0.23 0.56 0.28 0.11 0.02 0.10 0.21 0.22 0.17 0.33 0.46 0.62 0.34 0.26 0.35
0.00 0.00 0.00 0.00 0.00 0.01 0.00 0.01 0.03 0.04 0.20 0.22 0.50 0.98 0.96 0.27 0.50 0.24 0.24 0.37 0.53 1.02 1.11 0.87 0.77 0.72 0.60 0.33 0.24 0.29 0.42 0.43 0.19 0.09 0.10 0.06 0.05 0.06 0.33 0.51 0.56 0.43 0.64 1.02
0.01 0.00 0.01 0.00 0.02 0.03 0.01 0.00 0.01 0.01 0.08 0.28 0.51 0.87 0.90 0.45 0.70 0.58 0.45 0.30 0.31 0.30 0.76 1.42 2.04 2.44 1.88 1.56 1.27 0.78 0.84 0.78 0.56 0.25 0.24 0.21 0.11 0.07 0.21 0.34 0.39 0.57 0.76 0.86
0.02 0.01 0.01 0.01 0.03 0.09 0.12 0.07 0.06 0.02 0.16 0.21 0.29 0.70 0.75 0.46 0.58 0.74 1.55 0.83 0.65 0.35 0.35 0.95 1.53 2.92 4.44 3.00 3.44 3.92 2.17 1.68 1.27 0.55 0.48 0.32 0.30 0.20 0.20 0.13 0.24 0.50 0.68 0.83
0.09 0.06 0.02 0.05 0.07 0.03 0.00 0.02 0.17 0.14 0.14 0.07 0.12 0.23 0.33 0.40 0.66 0.85 1.51 1.45 0.76 0.82 0.60 0.54 0.84 1.25 2.53 2.40 2.12 4.18 4.63 3.43 2.40 1.44 1.03 0.96 0.98 0.51 0.26 0.20 0.26 0.37 0.49 0.64
0.19 0.06 0.01 0.03 0.09 0.08 0.02 0.02 0.01 0.06 0.09 0.03 0.04 0.13 0.37 0.39 0.50 0.28 0.40 1.18 1.12 0.93 1.01 0.70 1.06 1.81 2.44 2.93 3.05 3.83 3.56 3.66 4.26 2.99 2.36 1.90 1.75 1.25 1.01 0.82 0.68 0.55 0.60 0.49
0.11 0.02 0.00 0.00 0.00 0.00 0.03 0.03 0.03 0.01 0.01 0.06 0.36 0.14 0.66 0.36 0.17 0.09 0.20 0.36 0.55 0.78 0.90 0.95 1.08 1.25 2.45 3.51 3.01 3.92 4.19 3.62 2.95 3.47 4.41 4.25 3.51 2.87 2.64 2.86 2.54 1.68 1.29 0.87
0.11 0.04 0.00 0.00 0.00 0.00 0.01 0.01 0.01 0.05 0.13 0.07 0.26 0.50 0.31 0.43 0.35 0.33 0.40 0.70 0.93 0.97 0.88 1.00 1.43 1.49 1.59 1.92 2.06 2.91 4.36 4.99 3.59 2.68 2.75 3.64 4.51 4.88 4.00 3.76 3.44 3.70 2.75 1.87
0.17 0.16 0.15 0.05 0.01 0.01 0.06 0.01 0.01 0.01 0.04 0.05 0.13 0.64 0.61 0.62 0.65 0.73 0.53 0.89 1.55 1.47 1.29 1.06 1.09 1.48 1.37 1.31 1.19 1.23 1.84 2.99 3.77 3.99 3.32 3.24 3.68 5.07 5.25 4.06 3.99 3.96 3.60 3.39
0.14 0.22 0.23 0.15 0.13 0.18 0.07 0.06 0.04 0.07 0.08 0.20 0.35 0.30 0.47 0.49 0.20 0.19 0.19 0.25 0.69 1.00 1.45 1.42 1.22 1.27 1.19 1.49 1.69 1.27 1.21 1.34 1.93 2.79 3.54 3.92 3.59 4.39 5.16 4.22 3.56 3.51 3.94 4.08
0.07 0.22 0.25 0.17 0.32 0.25 0.11 0.08 0.04 0.06 0.16 0.21 0.23 0.35 0.82 0.67 0.43 0.26 0.30 0.24 0.29 0.67 0.61 0.97 1.45 1.38 1.69 1.60 1.84 2.05 1.93 1.47 1.74 1.93 2.50 3.61 4.84 4.91 5.04 5.33 4.65 4.30 4.18 3.81
0.14 0.27 0.37 0.25 0.62 0.79 0.60 0.21 0.03 0.03 0.27 0.39 0.29 0.35 0.97 0.63 0.71 0.49 0.29 0.23 0.24 0.53 0.38 0.32 0.43 0.78 1.15 1.89 2.05 2.26 2.60 2.09 1.71 1.84 1.99 2.08 2.46 3.15 3.62 4.33 4.73 4.74 4.99 4.65
0.53 0.52 0.44 0.38 0.70 0.71 0.43 0.20 0.04 0.22 0.31 0.22 0.23 0.50 0.69 0.53 0.54 0.64 0.62 0.67 0.16 0.21 0.41 0.22 0.18 0.29 0.55 0.82 1.22 1.70 1.56 1.70 2.27 2.34 2.34 2.25 2.29 2.60 2.92 3.03 3.15 3.36 3.24 3.20
0.79 0.95 0.69 0.56 0.76 0.93 0.50 0.44 0.34 0.27 0.10 0.16 0.25 0.49 0.78 0.66 0.70 0.56 0.43 0.36 0.36 0.18 0.53 0.44 0.26 0.34 0.41 0.60 0.85 1.09 1.29 1.30 1.93 2.51 3.02 3.38 3.58 3.51 3.13 3.10 3.85 3.64 3.26 3.27
0.63 0.59 0.63 0.73 0.91 0.89 0.55 0.44 0.16 0.07 0.12 0.18 0.30 0.42 0.63 0.63 0.52 0.48 0.39 0.21 0.16 0.15 0.62 0.68 0.29 0.35 0.57 0.65 0.63 0.63 0.81 1.10 1.31 1.58 2.02 2.19 2.85 3.22 3.09 3.28 3.41 3.23 3.24 3.20
0.84 0.67 0.77 0.72 0.62 0.69 0.65 0.47 0.39 0.17 0.17 0.17 0.23 0.37 0.58 0.55 0.47 0.38 0.35 0.34 0.32 0.27 0.47 1.53 1.31 0.61 0.60 0.56 0.53 0.57 0.63 0.71 0.71 0.80 0.87 0.78 1.04 1.43 1.37 1.41 1.49 1.71 1.68 1.94
1.70 1.39 1.06 0.92 0.98 1.08 1.05 0.73 0.60 0.58 0.48 0.35 0.34 0.31 0.31 0.34 0.41 0.48 0.41 0.37 0.40 0.56 0.59 1.01 1.49 1.11 0.57 0.48 0.52 0.61 0.63 0.89 0.80 0.97 0.96 1.04 1.43 1.91 2.20 2.42 2.69 2.40 2.43 2.50
2.34 2.11 1.91 1.65 1.50 1.67 1.25 1.00 0.67 0.89 0.83 0.78 0.63 0.67 0.61 0.52 0.45 0.43 0.46 0.44 0.43 0.52 0.93 1.19 1.14 1.12 1.00 0.90 0.94 0.85 0.85 0.90 0.93 1.06 1.14 1.26 1.52 1.93 2.25 2.14 2.38 2.93 3.29 3.28

GFSCGP_prec_precacc_219.txt.gz
Total_Precipitation_Accumulation
0.00 0.00 0.00 0.00 0.00 0.01 0.17 0.41 1.20 1.86 2.16 3.33 3.08 2.32 1.37 1.20 0.91 1.24 0.85 0.19 0.07 0.11 0.06 0.02 0.07 0.10 0.03 0.02 0.03 0.10 0.27 0.40 0.57 0.58 0.40 0.47 0.23 0.33 0.43 0.50 0.42 0.55 0.63 0.63
0.00 0.00 0.00 0.00 0.00 0.02 0.03 0.37 0.92 1.22 1.44 2.31 3.67 2.77 1.70 1.29 0.82 0.84 1.14 0.47 0.22 0.19 0.16 0.03 0.02 0.03 0.03 0.01 0.01 0.15 0.29 0.37 0.31 0.17 0.09 0.35 0.45 0.30 0.54 0.51 0.54 0.56 0.37 0.44
0.00 0.00 0.00 0.00 0.00 0.00 0.06 0.27 0.62 0.89 0.63 1.24 2.92 3.97 3.21 1.99 1.40 1.29 0.69 0.50 0.23 0.15 0.18 0.19 0.10 0.03 0.03 0.01 0.00 0.01 0.12 0.22 0.28 0.21 0.19 0.66 1.07 1.00 0.89 0.69 0.36 0.28 0.26 0.19
0.00 0.00 0.00 0.00 0.00 0.00 0.11 0.20 0.62 1.36 0.79 0.77 0.58 2.51 3.88 2.38 1.97 1.67 0.73 0.43 0.23 0.17 0.29 0.36 0.20 0.06 0.01 0.02 0.03 0.01 0.09 0.20 0.18 0.31 0.21 0.38 0.58 0.61 0.43 0.28 0.21 0.31 0.26 0.22
0.00 0.00 0.00 0.00 0.00 0.01 0.03 0.17 0.56 0.67 0.62 0.26 0.16 0.73 1.74 2.07 1.77 1.58 0.86 0.33 0.20 0.22 0.18 0.13 0.10 0.09 0.12 0.08 0.33 0.24 0.13 0.26 0.23 0.33 0.61 0.47 0.47 0.55 0.65 0.34 0.36 0.52 0.52 0.40
0.00 0.00 0.00 0.00 0.00 0.01 0.02 0.08 0.32 0.59 0.46 0.34 0.09 0.26 0.98 1.41 0.91 1.19 0.85 0.36 0.18 0.21 0.15 0.16 0.27 0.17 0.22 0.48 0.80 0.29 0.16 0.17 0.27 0.31 0.41 0.55 0.67 0.93 0.59 0.78 0.58 0.28 0.17 0.21
0.00 0.00 0.00 0.00 0.00 0.00 0.01 0.05 0.34 0.41 0.35 0.40 0.16 0.25 0.46 0.72 0.54 0.59 1.09 0.55 0.41 0.27 0.26 0.20 0.27 0.14 0.12 0.20 0.47 0.20 0.16 0.16 0.12 0.10 0.18 0.26 0.62 0.99 1.07 0.96 0.43 0.40 0.28 0.16
0.00 0.00 0.00 0.00 0.00 0.00 0.00 0.01 0.13 0.29 0.34 0.45 0.33 0.67 0.32 0.21 0.25 0.41 0.56 0.69 1.16 0.80 0.48 0.41 0.44 0.27 0.11 0.09 0.14 0.09 0.24 0.13 0.07 0.08 0.17 0.30 0.53 0.50 0.37 0.31 0.46 0.26 0.20 0.26
0.00 0.00 0.00 0.00 0.00 0.00 0.00 0.01 0.04 0.09 0.17 0.36 0.36 0.63 0.30 0.14 0.12 0.11 0.41 0.78 1.06 0.99 0.73 0.86 0.69 0.52 0.19 0.07 0.09 0.23 0.56 0.29 0.14 0.06 0.19 0.28 0.24 0.17 0.34 0.46 0.62 0.34 0.26 0.36
0.00 0.00 0.00 0.00 0.00 0.01 0.00 0.01 0.03 0.04 0.20 0.22 0.50 0.98 0.96 0.27 0.50 0.24 0.24 0.37 0.53 1.02 1.11 0.93 0.86 0.73 0.60 0.33 0.24 0.29 0.42 0.44 0.21 0.12 0.13 0.09 0.13 0.11 0.36 0.51 0.56 0.43 0.64 1.02
0.01 0.00 0.01 0.00 0.02 0.03 0.01 0.00 0.01 0.01 0.08 0.28 0.51 0.87 0.90 0.45 0.70 0.58 0.45 0.30 0.31 0.30 0.76 1.42 2.05 2.47 1.89 1.56 1.27 0.79 0.90 0.88 0.71 0.54 0.46 0.32 0.16 0.23 0.24 0.36 0.40 0.57 0.76 0.86
0.02 0.01 0.01 0.01 0.03 0.09 0.12 0.07 0.06 0.02 0.16 0.21 0.29 0.70 0.75 0.46 0.58 0.74 1.55 0.83 0.65 0.35 0.35 0.95 1.53 2.92 4.45 3.02 3.49 4.19 2.70 1.80 1.46 1.02 0.83 0.45 0.47 0.46 0.25 0.14 0.28 0.51 0.68 0.83
0.09 0.06 0.02 0.05 0.07 0.03 0.00 0.02 0.17 0.14 0.14 0.07 0.12 0.23 0.33 0.40 0.66 0.85 1.51 1.45 0.76 0.82 0.60 0.55 0.84 1.25 2.53 2.41 2.18 4.31 4.81 3.67 2.54 1.47 1.03 0.98 1.05 0.57 0.33 0.25 0.28 0.39 0.50 0.64
0.19 0.06 0.01 0.03 0.09 0.08 0.02 0.02 0.01 0.06 0.09 0.03 0.04 0.13 0.37 0.39 0.50 0.28 0.40 1.18 1.12 0.93 1.01 0.70 1.06 1.81 2.44 2.93 3.05 3.83 3.61 3.71 4.27 2.99 2.36 1.90 1.78 1.27 1.04 0.95 0.85 0.61 0.62 0.49
0.11 0.02 0.00 0.00 0.00 0.00 0.03 0.03 0.03 0.01 0.01 0.06 0.36 0.14 0.66 0.36 0.17 0.10 0.22 0.37 0.55 0.78 0.90 0.95 1.08 1.25 2.45 3.51 3.01 3.92 4.19 3.62 2.95 3.47 4.41 4.25 3.53 2.95 2.76 2.99 2.62 1.83 1.48 0.90
0.11 0.04 0.00 0.00 0.00 0.00 0.01 0.01 0.01 0.05 0.13 0.07 0.26 0.50 0.31 0.43 0.35 0.33 0.41 0.71 0.94 0.97 0.88 1.00 1.43 1.49 1.59 1.92 2.06 2.91 4.36 4.99 3.59 2.68 2.75 3.65 4.57 5.05 4.17 3.98 3.71 4.08 3.20 2.20
0.17 0.16 0.15 0.05 0.01 0.01 0.06 0.01 0.01 0.01 0.04 0.05 0.13 0.64 0.61 0.62 0.65 0.73 0.53 0.89 1.55 1.47 1.29 1.06 1.09 1.48 1.37 1.31 1.19 1.23 1.84 2.99 3.77 3.99 3.32 3.24 3.68 5.13 5.42 4.29 4.22 4.38 4.22 4.02
0.14 0.22 0.23 0.15 0.13 0.18 0.07 0.06 0.04 0.07 0.08 0.20 0.35 0.30 0.47 0.49 0.20 0.19 0.19 0.25 0.69 1.00 1.45 1.42 1.22 1.27 1.19 1.49 1.69 1.27 1.21 1.34 1.93 2.79 3.54 3.92 3.59 4.40 5.19 4.32 3.67 3.71 4.21 4.62
0.07 0.22 0.25 0.17 0.32 0.25 0.11 0.08 0.04 0.06 0.16 0.21 0.23 0.35 0.82 0.67 0.43 0.26 0.30 0.24 0.29 0.67 0.61 0.97 1.45 1.38 1.69 1.60 1.84 2.05 1.93 1.47 1.74 1.93 2.50 3.61 4.84 4.91 5.04 5.34 4.67 4.33 4.27 3.97
0.14 0.27 0.37 0.25 0.62 0.79 0.60 0.21 0.03 0.03 0.27 0.39 0.29 0.35 0.97 0.63 0.71 0.49 0.29 0.23 0.24 0.53 0.38 0.32 0.43 0.78 1.15 1.89 2.05 2.26 2.60 2.09 1.71 1.84 1.99 2.08 2.46 3.15 3.62 4.33 4.73 4.74 4.99 4.66
0.53 0.52 0.44 0.38 0.70 0.71 0.43 0.20 0.04 0.22 0.31 0.22 0.23 0.50 0.69 0.53 0.54 0.64 0.62 0.67 0.16 0.21 0.41 0.22 0.18 0.29 0.55 0.82 1.22 1.70 1.56 1.70 2.27 2.34 2.34 2.25 2.29 2.60 2.92 3.03 3.15 3.36 3.24 3.20
0.79 0.95 0.69 0.56 0.76 0.93 0.50 0.44 0.34 0.27 0.10 0.16 0.25 0.49 0.78 0.66 0.70 0.56 0.43 0.36 0.36 0.18 0.53 0.44 0.26 0.34 0.41 0.60 0.85 1.09 1.29 1.30 1.93 2.51 3.02 3.38 3.58 3.51 3.13 3.10 3.85 3.64 3.26 3.27
0.63 0.59 0.63 0.73 0.91 0.89 0.55 0.44 0.16 0.07 0.12 0.18 0.30 0.42 0.63 0.63 0.52 0.48 0.39 0.21 0.16 0.15 0.62 0.68 0.29 0.35 0.57 0.65 0.63 0.63 0.81 1.10 1.31 1.58 2.02 2.19 2.85 3.22 3.09 3.28 3.41 3.23 3.24 3.20
0.84 0.67 0.77 0.72 0.62 0.69 0.65 0.47 0.39 0.17 0.17 0.17 0.23 0.37 0.58 0.55 0.47 0.38 0.35 0.34 0.32 0.27 0.47 1.53 1.31 0.61 0.60 0.56 0.53 0.57 0.63 0.71 0.71 0.80 0.87 0.78 1.04 1.43 1.37 1.41 1.49 1.71 1.68 1.94
1.70 1.39 1.06 0.92 0.98 1.08 1.05 0.73 0.60 0.58 0.48 0.35 0.34 0.31 0.31 0.34 0.41 0.48 0.41 0.37 0.40 0.56 0.59 1.01 1.49 1.11 0.57 0.48 0.52 0.61 0.63 0.89 0.80 0.97 0.96 1.04 1.43 1.91 2.20 2.42 2.69 2.40 2.43 2.50
2.34 2.11 1.91 1.65 1.50 1.67 1.25 1.00 0.67 0.89 0.83 0.78 0.63 0.67 0.61 0.52 0.45 0.43 0.46 0.44 0.43 0.52 0.93 1.19 1.14 1.12 1.00 0.90 0.94 0.85 0.85 0.90 0.93 1.06 1.14 1.26 1.52 1.93 2.25 2.14 2.38 2.93 3.29 3.28

GFSCGP_prec_precacc_222.txt.gz
Total_Precipitation_Accumulation
0.00 0.00 0.00 0.00 0.00 0.01 0.17 0.41 1.20 1.86 2.16 3.33 3.08 2.32 1.37 1.20 0.91 1.24 0.85 0.19 0.07 0.11 0.06 0.02 0.07 0.10 0.04 0.02 0.03 0.11 0.28 0.41 0.63 0.60 0.40 0.49 0.26 0.34 0.47 0.50 0.42 0.55 0.63 0.63
0.00 0.00 0.00 0.00 0.00 0.02 0.03 0.37 0.92 1.22 1.44 2.31 3.67 2.77 1.70 1.29 0.82 0.84 1.14 0.47 0.22 0.19 0.16 0.03 0.02 0.03 0.03 0.01 0.01 0.15 0.29 0.38 0.33 0.18 0.10 0.36 0.45 0.32 0.59 0.51 0.54 0.56 0.37 0.44
0.00 0.00 0.00 0.00 0.00 0.00 0.06 0.27 0.62 0.89 0.63 1.24 2.92 3.97 3.21 1.99 1.40 1.29 0.69 0.50 0.23 0.15 0.18 0.19 0.10 0.03 0.03 0.01 0.00 0.01 0.12 0.22 0.29 0.25 0.19 0.67 1.07 1.00 0.89 0.69 0.36 0.28 0.26 0.19
0.00 0.00 0.00 0.00 0.00 0.00 0.11 0.20 0.62 1.36 0.79 0.77 0.58 2.51 3.88 2.38 1.97 1.67 0.73 0.43 0.23 0.17 0.29 0.36 0.20 0.06 0.01 0.02 0.03 0.01 0.09 0.20 0.18 0.32 0.21 0.38 0.58 0.61 0.44 0.28 0.21 0.31 0.26 0.22
0.00 0.00 0.00 0.00 0.00 0.01 0.03 0.17 0.56 0.67 0.62 0.26 0.16 0.73 1.74 2.07 1.77 1.58 0.86 0.33 0.20 0.22 0.18 0.13 0.10 0.09 0.12 0.08 0.33 0.24 0.13 0.26 0.23 0.33 0.61 0.47 0.47 0.55 0.65 0.34 0.37 0.52 0.52 0.40
0.00 0.00 0.00 0.00 0.00 0.01 0.02 0.08 0.32 0.59 0.46 0.34 0.09 0.26 0.98 1.41 0.91 1.19 0.85 0.36 0.18 0.21 0.15 0.16 0.27 0.17 0.22 0.48 0.80 0.29 0.16 0.17 0.27 0.31 0.41 0.55 0.67 0.93 0.60 0.78 0.58 0.28 0.21 0.21
0.00 0.00 0.00 0.00 0.00 0.00 0.01 0.05 0.34 0.41 0.35 0.40 0.16 0.25 0.46 0.72 0.54 0.59 1.09 0.55 0.41 0.27 0.26 0.20 0.27 0.14 0.12 0.20 0.47 0.20 0.16 0.16 0.12 0.10 0.18 0.26 0.62 0.99 1.09 0.98 0.43 0.40 0.33 0.17
0.00 0.00 0.00 0.00 0.00 0.00 0.00 0.01 0.13 0.29 0.34 0.45 0.33 0.67 0.32 0.21 0.25 0.41 0.56 0.69 1.16 0.80 0.48 0.41 0.44 0.27 0.11 0.09 0.14 0.10 0.24 0.13 0.07 0.08 0.17 0.30 0.53 0.51 0.43 0.38 0.48 0.26 0.20 0.31
0.00 0.00 0.00 0.00 0.00 0.00 0.00 0.01 0.04 0.09 0.17 0.36 0.36 0.63 0.30 0.14 0.12 0.11 0.41 0.78 1.06 0.99 0.73 0.86 0.69 0.52 0.19 0.07 0.09 0.23 0.56 0.30 0.17 0.08 0.23 0.35 0.43 0.36 0.39 0.58 0.66 0.35 0.26 0.38
0.00 0.00 0.00 0.00 0.00 0.01 0.00 0.01 0.03 0.04 0.20 0.22 0.50 0.98 0.96 0.27 0.50 0.24 0.24 0.37 0.53 1.02 1.11 0.93 0.86 0.73 0.60 0.33 0.24 0.29 0.42 0.44 0.22 0.22 0.41 0.49 0.37 0.31 0.55 0.72 0.62 0.45 0.66 1.03
0.01 0.00 0.01 0.00 0.02 0.03 0.01 0.00 0.01 0.01 0.08 0.28 0.51 0.87 0.90 0.45 0.70 0.58 0.45 0.30 0.31 0.30 0.76 1.42 2.05 2.47 1.89 1.56 1.27 0.79 0.91 0.88 0.74 0.72 0.81 1.00 0.76 0.48 0.55 0.78 0.63 0.68 0.81 0.88
0.02 0.01 0.01 0.01 0.03 0.09 0.12 0.07 0.06 0.02 0.16 0.21 0.29 0.70 0.75 0.46 0.58 0.74 1.55 0.83 0.65 0.35 0.35 0.95 1.53 2.92 4.45 3.02 3.49 4.19 2.70 1.83 1.49 1.02 0.83 0.47 0.50 0.57 0.39 0.38 0.49 0.84 0.85 0.88
0.09 0.06 0.02 0.05 0.07 0.03 0.00 0.02 0.17 0.14 0.14 0.07 0.12 0.23 0.33 0.40 0.66 0.85 1.51 1.45 0.76 0.82 0.60 0.55 0.84 1.25 2.53 2.41 2.18 4.31 4.81 3.68 2.55 1.47 1.03 0.98 1.05 0.58 0.35 0.26 0.35 0.55 0.69 0.84
0.19 0.06 0.01 0.03 0.09 0.08 0.02 0.02 0.01 0.06 0.09 0.03 0.04 0.13 0.37 0.39 0.50 0.28 0.40 1.18 1.12 0.93 1.01 0.70 1.06 1.81 2.44 2.93 3.05 3.83 3.61 3.71 4.27 2.99 2.36 1.90 1.78 1.27 1.04 0.95 0.86 0.74 0.80 0.62
0.11 0.02 0.00 0.00 0.00 0.00 0.03 0.03 0.03 0.01 0.01 0.06 0.36 0.14 0.66 0.36 0.18 0.11 0.23 0.37 0.56 0.79 0.91 0.95 1.08 1.25 2.45 3.51 3.01 3.92 4.19 3.62 2.95 3.47 4.42 4.25 3.53 2.95 2.76 3.00 2.62 1.84 1.49 0.97
0.11 0.04 0.00 0.00 0.00 0.00 0.01 0.01 0.01 0.05 0.13 0.07 0.26 0.50 0.31 0.43 0.37 0.35 0.42 0.72 0.94 0.97 0.88 1.00 1.43 1.49 1.59 1.92 2.06 2.91 4.36 4.99 3.59 2.68 2.75 3.65 4.57 5.05 4.18 4.01 3.73 4.08 3.23 2.34
0.17 0.16 0.15 0.05 0.01 0.01 0.06 0.01 0.01 0.01 0.04 0.05 0.13 0.64 0.61 0.62 0.65 0.73 0.53 0.89 1.55 1.47 1.29 1.06 1.09 1.48 1.37 1.31 1.19 1.23 1.84 2.99 3.77 3.99 3.32 3.24 3.68 5.13 5.42 4.29 4.23 4.38 4.28 4.32
0.14 0.22 0.23 0.15 0.13 0.18 0.07 0.06 0.04 0.07 0.08 0.20 0.35 0.30 0.47 0.49 0.20 0.19 0.19 0.25 0.69 1.00 1.45 1.42 1.22 1.27 1.19 1.49 1.69 1.27 1.21 1.34 1.93 2.79 3.54 3.92 3.59 4.40 5.19 4.32 3.67 3.71 4.21 4.63
0.07 0.22 0.25 0.17 0.32 0.25 0.11 0.08 0.04 0.06 0.16 0.21 0.23 0.35 0.82 0.67 0.43 0.26 0.30 0.24 0.29 0.67 0.61 0.97 1.45 1.38 1.69 1.60 1.84 2.05 1.93 1.47 1.74 1.93 2.50 3.61 4.84 4.91 5.04 5.34 4.67 4.33 4.27 3.97
0.14 0.27 0.37 0.25 0.62 0.79 0.60 0.21 0.03 0.03 0.27 0.39 0.29 0.35 0.97 0.63 0.71 0.49 0.29 0.23 0.24 0.53 0.38 0.32 0.43 0.78 1.15 1.89 2.05 2.26 2.60 2.09 1.71 1.84 1.99 2.08 2.46 3.15 3.62 4.33 4.73 4.74 4.99 4.66
0.53 0.52 0.44 0.38 0.70 0.71 0.43 0.20 0.04 0.22 0.31 0.22 0.23 0.50 0.69 0.53 0.54 0.64 0.62 0.67 0.16 0.21 0.41 0.22 0.18 0.29 0.55 0.82 1.22 1.70 1.56 1.70 2.27 2.34 2.34 2.25 2.29 2.60 2.92 3.03 3.15 3.36 3.24 3.20
0.79 0.95 0.69 0.56 0.76 0.93 0.50 0.44 0.34 0.27 0.10 0.16 0.25 0.49 0.78 0.66 0.70 0.56 0.43 0.36 0.36 0.18 0.53 0.44 0.26 0.34 0.41 0.60 0.85 1.09 1.29 1.30 1.93 2.51 3.02 3.38 3.58 3.51 3.13 3.10 3.85 3.64 3.26 3.27
0.63 0.59 0.63 0.73 0.91 0.89 0.55 0.44 0.16 0.07 0.12 0.18 0.30 0.42 0.63 0.63 0.52 0.48 0.39 0.21 0.16 0.15 0.62 0.68 0.29 0.35 0.57 0.65 0.63 0.63 0.81 1.10 1.31 1.58 2.02 2.19 2.85 3.22 3.09 3.28 3.41 3.23 3.24 3.20
0.84 0.67 0.77 0.72 0.62 0.69 0.65 0.47 0.39 0.17 0.17 0.17 0.23 0.37 0.58 0.55 0.47 0.38 0.35 0.34 0.32 0.27 0.47 1.53 1.31 0.61 0.60 0.56 0.53 0.57 0.63 0.71 0.71 0.80 0.87 0.78 1.04 1.43 1.37 1.41 1.49 1.71 1.68 1.94
1.70 1.39 1.06 0.92 0.98 1.08 1.05 0.73 0.60 0.58 0.48 0.35 0.34 0.31 0.31 0.34 0.41 0.48 0.41 0.37 0.40 0.56 0.59 1.01 1.49 1.11 0.57 0.48 0.52 0.61 0.63 0.89 0.80 0.97 0.96 1.04 1.43 1.91 2.20 2.42 2.69 2.40 2.43 2.50
2.34 2.11 1.91 1.65 1.50 1.67 1.25 1.00 0.67 0.89 0.83 0.78 0.63 0.67 0.61 0.52 0.45 0.43 0.46 0.44 0.43 0.52 0.93 1.19 1.14 1.12 1.00 0.90 0.94 0.85 0.85 0.90 0.93 1.06 1.14 1.26 1.52 1.93 2.25 2.14 2.38 2.93 3.29 3.28